When you browse on this site, cookies collect data to enhance your experience and personalize the content and advertising you see.
Visit our Privacy Policy to learn more. By continuing to use the site, you agree to this use of cookies and data.
  • In France
  • List of Countries
  • For 7 days
  • Water Temperature
  • Satellite Maps
  • Weather Map
  • Weather Widgets
  • user-avatar
    Login

    Hourly Weather Adelaide

    Today, 10 December, Monday

    Time Temperature Precipitation Wind Pressure Humidity
    00:00 +17°C° 0 mm 5 mps 759 mmHg 67%
    01:00 +16°C° 0 mm 5 mps 759 mmHg 69%
    02:00 +16°C° 0 mm 5 mps 759 mmHg 70%
    03:00 +15°C° 0 mm 4 mps 759 mmHg 72%
    04:00 +16°C° 0 mm 5 mps 759 mmHg 68%
    05:00 +16°C° 0 mm 5 mps 759 mmHg 64%
    06:00 +17°C° 0 mm 6 mps 760 mmHg 60%
    07:00 +20°C° 0 mm 6 mps 760 mmHg 52%
    08:00 +21°C° 0 mm 6 mps 760 mmHg 44%
    09:00 +25°C° 0 mm 3 mps 760 mmHg 35%
    10:00 +26°C° 0 mm 4 mps 760 mmHg 33%
    11:00 +28°C° 0 mm 5 mps 759 mmHg 31%
    12:00 +29°C° 0 mm 5 mps 759 mmHg 29%
    13:00 +29°C° 0 mm 6 mps 759 mmHg 30%
    14:00 +29°C° 0 mm 6 mps 758 mmHg 30%
    15:00 +28°C° 0 mm 5 mps 758 mmHg 32%
    16:00 +27°C° 0 mm 5 mps 758 mmHg 36%
    17:00 +26°C° 0 mm 6 mps 758 mmHg 41%
    18:00 +23°C° 0 mm 6 mps 758 mmHg 45%
    19:00 +22°C° 0 mm 6 mps 758 mmHg 50%
    20:00 +20°C° 0 mm 6 mps 758 mmHg 55%
    21:00 +19°C° 0 mm 4 mps 759 mmHg 58%
    22:00 +19°C° 0 mm 5 mps 758 mmHg 60%
    23:00 +19°C° 0 mm 5 mps 758 mmHg 62%

    Tomorrow, 11 December, Tuesday

    Time Temperature Precipitation Wind Pressure Humidity
    00:00 +19°C° 0 mm 5 mps 758 mmHg 65%
    01:00 +17°C° 0 mm 5 mps 757 mmHg 64%
    02:00 +17°C° 0 mm 5 mps 757 mmHg 64%
    03:00 +18°C° 0 mm 4 mps 757 mmHg 64%
    04:00 +18°C° 0 mm 4 mps 757 mmHg 60%
    05:00 +19°C° 0 mm 4 mps 757 mmHg 56%
    06:00 +20°C° 0 mm 4 mps 757 mmHg 52%
    07:00 +22°C° 0 mm 4 mps 757 mmHg 45%
    08:00 +26°C° 0 mm 4 mps 757 mmHg 38%
    09:00 +28°C° 0 mm 4 mps 756 mmHg 32%
    10:00 +30°C° 0 mm 3 mps 756 mmHg 30%
    11:00 +33°C° 0 mm 3 mps 755 mmHg 28%
    12:00 +35°C° 0 mm 3 mps 755 mmHg 26%
    13:00 +35°C° 0 mm 3 mps 754 mmHg 25%
    14:00 +36°C° 0 mm 3 mps 754 mmHg 25%
    15:00 +36°C° 0 mm 4 mps 753 mmHg 25%
    16:00 +34°C° 0 mm 4 mps 753 mmHg 27%
    17:00 +33°C° 0 mm 4 mps 752 mmHg 29%
    18:00 +32°C° 0 mm 5 mps 752 mmHg 31%
    19:00 +29°C° 0.1 mm 5 mps 752 mmHg 33%
    20:00 +28°C° 0.1 mm 4 mps 752 mmHg 35%
    21:00 +26°C° 0.1 mm 4 mps 752 mmHg 37%
    22:00 +26°C° 0.1 mm 4 mps 752 mmHg 38%
    23:00 +26°C° 0.1 mm 3 mps 751 mmHg 38%

    Day after tomorrow, 12 December, Wednesday

    Time Temperature Precipitation Wind Pressure Humidity
    00:00 +26°C° 0.1 mm 3 mps 751 mmHg 38%
    01:00 +26°C° 0 mm 2 mps 750 mmHg 42%
    02:00 +26°C° 0 mm 2 mps 750 mmHg 45%
    03:00 +25°C° 0 mm 1 mps 749 mmHg 48%
    04:00 +26°C° 0 mm 2 mps 749 mmHg 49%
    05:00 +27°C° 0 mm 2 mps 749 mmHg 49%
    06:00 +28°C° 0 mm 3 mps 749 mmHg 49%
    07:00 +30°C° 0 mm 3 mps 749 mmHg 43%
    08:00 +33°C° 0 mm 4 mps 749 mmHg 38%
    09:00 +35°C° 0 mm 4 mps 749 mmHg 32%
    10:00 +35°C° 0.1 mm 5 mps 749 mmHg 31%
    11:00 +35°C° 0.1 mm 5 mps 749 mmHg 29%
    12:00 +35°C° 0.1 mm 6 mps 749 mmHg 28%
    13:00 +34°C° 0.1 mm 6 mps 748 mmHg 31%
    14:00 +33°C° 0.1 mm 5 mps 748 mmHg 33%
    15:00 +32°C° 0.1 mm 5 mps 748 mmHg 36%
    16:00 +32°C° 0 mm 5 mps 748 mmHg 40%
    17:00 +30°C° 0 mm 5 mps 748 mmHg 44%
    18:00 +29°C° 0 mm 5 mps 748 mmHg 47%
    19:00 +27°C° 0 mm 5 mps 748 mmHg 53%
    20:00 +26°C° 0 mm 5 mps 749 mmHg 58%
    21:00 +23°C° 0 mm 5 mps 749 mmHg 64%
    22:00 +22°C° 0.1 mm 5 mps 749 mmHg 68%
    23:00 +21°C° 0.1 mm 6 mps 750 mmHg 73%

    13 December, Thursday

    Time Temperature Precipitation Wind Pressure Humidity
    00:00 +20°C° 0.1 mm 6 mps 750 mmHg 77%
    01:00 +18°C° 0.1 mm 7 mps 750 mmHg 76%
    02:00 +18°C° 0.1 mm 7 mps 750 mmHg 75%
    03:00 +18°C° 0.1 mm 7 mps 750 mmHg 74%
    04:00 +17°C° 0.3 mm 8 mps 751 mmHg 73%
    05:00 +17°C° 0.3 mm 9 mps 751 mmHg 72%
    06:00 +16°C° 0.3 mm 10 mps 752 mmHg 71%
    07:00 +16°C° 0.1 mm 10 mps 752 mmHg 65%
    08:00 +17°C° 0.1 mm 10 mps 753 mmHg 60%
    09:00 +17°C° 0.1 mm 10 mps 753 mmHg 54%
    10:00 +17°C° 0.1 mm 10 mps 753 mmHg 51%
    11:00 +17°C° 0.1 mm 11 mps 753 mmHg 49%
    12:00 +17°C° 0.1 mm 11 mps 754 mmHg 47%
    13:00 +16°C° 0.1 mm 11 mps 754 mmHg 49%
    14:00 +16°C° 0.1 mm 11 mps 754 mmHg 51%
    15:00 +14°C° 0.1 mm 11 mps 754 mmHg 53%
    16:00 +14°C° 0.2 mm 11 mps 754 mmHg 54%
    17:00 +14°C° 0.2 mm 11 mps 754 mmHg 56%
    18:00 +14°C° 0.2 mm 11 mps 754 mmHg 57%
    19:00 +13°C° 0.1 mm 10 mps 755 mmHg 58%
    20:00 +13°C° 0.1 mm 10 mps 755 mmHg 59%
    21:00 +13°C° 0.1 mm 10 mps 755 mmHg 60%
    22:00 +13°C° 0.1 mm 10 mps 755 mmHg 61%
    23:00 +12°C° 0.1 mm 10 mps 755 mmHg 62%

    14 December, Friday

    Time Temperature Precipitation Wind Pressure Humidity
    00:00 +12°C° 0.1 mm 10 mps 755 mmHg 62%
    01:00 +12°C° 0.1 mm 10 mps 754 mmHg 64%
    02:00 +12°C° 0.1 mm 10 mps 753 mmHg 65%
    03:00 +12°C° 0.1 mm 10 mps 753 mmHg 66%
    04:00 +13°C° 0.1 mm 10 mps 753 mmHg 67%
    05:00 +13°C° 0.1 mm 11 mps 752 mmHg 69%
    06:00 +13°C° 0.1 mm 11 mps 752 mmHg 70%
    07:00 +14°C° 0.1 mm 11 mps 752 mmHg 72%
    08:00 +14°C° 0.1 mm 11 mps 752 mmHg 73%
    09:00 +16°C° 0.1 mm 11 mps 751 mmHg 75%
    10:00 +16°C° 0.1 mm 11 mps 751 mmHg 76%
    11:00 +17°C° 0.1 mm 11 mps 750 mmHg 77%
    12:00 +17°C° 0.1 mm 11 mps 750 mmHg 79%
    13:00 +17°C° 0.3 mm 11 mps 750 mmHg 80%
    14:00 +17°C° 0.3 mm 11 mps 749 mmHg 82%
    15:00 +17°C° 0.3 mm 11 mps 749 mmHg 83%
    16:00 +18°C° 0.4 mm 10 mps 749 mmHg 84%
    17:00 +18°C° 0.4 mm 10 mps 749 mmHg 85%
    18:00 +18°C° 0.4 mm 9 mps 749 mmHg 86%
    19:00 +18°C° 0.4 mm 9 mps 750 mmHg 86%
    20:00 +18°C° 0.4 mm 9 mps 750 mmHg 87%
    21:00 +18°C° 0.4 mm 8 mps 750 mmHg 87%
    22:00 +18°C° 0.1 mm 7 mps 750 mmHg 88%
    23:00 +18°C° 0.1 mm 7 mps 749 mmHg 89%

    15 December, Saturday

    Time Temperature Precipitation Wind Pressure Humidity
    00:00 +19°C° 0.1 mm 6 mps 749 mmHg 90%
    01:00 +17°C° 0 mm 5 mps 749 mmHg 90%
    02:00 +18°C° 0 mm 4 mps 749 mmHg 91%
    03:00 +17°C° 0 mm 3 mps 749 mmHg 91%
    04:00 +18°C° 0.1 mm 3 mps 749 mmHg 88%
    05:00 +18°C° 0.1 mm 2 mps 749 mmHg 84%
    06:00 +18°C° 0.1 mm 2 mps 749 mmHg 80%
    07:00 +20°C° 0 mm 2 mps 749 mmHg 70%
    08:00 +23°C° 0 mm 2 mps 749 mmHg 59%
    09:00 +25°C° 0 mm 1 mps 750 mmHg 48%
    10:00 +25°C° 0 mm 2 mps 749 mmHg 47%
    11:00 +26°C° 0 mm 3 mps 749 mmHg 45%
    12:00 +27°C° 0 mm 3 mps 748 mmHg 44%
    13:00 +27°C° 0 mm 4 mps 748 mmHg 47%
    14:00 +26°C° 0 mm 5 mps 748 mmHg 49%
    15:00 +26°C° 0 mm 5 mps 748 mmHg 52%
    16:00 +25°C° 0 mm 5 mps 748 mmHg 58%
    17:00 +23°C° 0 mm 5 mps 748 mmHg 65%
    18:00 +22°C° 0 mm 5 mps 748 mmHg 71%
    19:00 +21°C° 0 mm 5 mps 748 mmHg 75%
    20:00 +20°C° 0 mm 4 mps 748 mmHg 79%
    21:00 +20°C° 0 mm 4 mps 749 mmHg 83%
    22:00 +19°C° 0 mm 4 mps 749 mmHg 84%
    23:00 +19°C° 0 mm 4 mps 749 mmHg 84%
    Show more